OPS 4682 DEB, 1316

Orbit data source: Space-Track

OPS 4682 DEB, 1316 is space debris in LEO originally from a launch on Sat, 03 Apr 1965 UTC launched from the Air Force Western Test Range (AFWTR). Debris objects in space refer to the collection of defunct objects orbiting the Earth. Examples of debris include non-operational satellites, rocket bodies, and fragments generated from explosions, collisions, or faulty payload assembly.

Loading next visibility...
Identifier
1316, 1965-027C
Orbit
LEO
Last TLE update
7 hours ago
Origin
Manufacturer
Unknown
Mission
Spacecraft
Bus & Motor
Unknown
Mass
7 kg wet, 7 kg dry
Launch date (UTC)
1965-04-03 (60 years ago)
Launch vehicle
Unknown
Launch site
Air Force Western Test Range (AFWTR)
Object type
Payload
Rocket body
Debris
Shape & HBR
Half Cyl, 2 m
Radar Cross Section
2.370 m², Medium (>0.1 m² and < 1m²)

Expand to show TLE details & history

TLE from 7 hours ago
0 OPS 4682 DEB
1  1316U 65027C   25130.43367637  .00000937  00000-0  22452-2 0  9997
2  1316  90.2521  17.6170 0029824 209.8621 150.0813 13.21819516866237
Epoch: 2025-05-10T10:24Z
Definitive object data (Epoch: 2025-05-10T10:24:29.638Z)
Latitude
-0.00003°
Longitude
-6.98202°
Altitude
1,200.242 km
Speed
7.244 km/s
True Right ascension
01h 10m 28s
True Declination
0° 00' 00"
Sunlit
Object was in daylight at TLE epoch
Visualization TLE readout
Latitude
43.029°
Longitude
-7.20862°
Altitude
1,206.042 km
Speed
7.244 km/s
Apparent Right ascension
21h 22m 27s
Apparent Declination
36° 07' 33"
Sunlit
Object is in daylight
Visualization observer readout
Local Sidereal Time
02:08:12
Azimuth
290.56° WNW
Elevation
35.136°
Doppler factor
1
Orbital elements
Apogee altitude
1,197.395 km
Perigee altitude
1,152.343 km
Semi-major axis
7,553.006 km
Eccentricity
0.0029824
Inclination
90.2521°
RAAN
17.617°
Arg. of periapsis
209.8621°
True anomaly
150.25121°
Mean anomaly
150.0813°
Eccentric anomaly
150.16631°
Mean motion
3.30646 °/min
BSTAR
0.0022452
Orbital period
108.88 mins
Loading maneuver chart data...
Loading SW <> Apogee altitude chart data...
Loading historical data...
Loading historical data...
Loading historical data...
Loading historical data...
Loading historical data...
Loading historical data...
Loading historical data...

OPS 4682 DEB Visibility forecast

Observer location: undefined°, undefined°

Span
Click to sort rows by Start time (UTC) header in descending order
Start Az.
Max El. time (UTC)
Max El. Az.
Max El.
End time (UTC)
End Az.
5 mins2025-05-10 17:53:33.271Z290.183° WNW2025-05-10 17:53:33.271Z290.183° WNW29.893°2025-05-10 17:58:33.271Z337.768° N
9 mins2025-05-11 03:23:33.271Z38.227° NE2025-05-11 03:27:33.271Z77.164° E20.184°2025-05-11 03:32:33.271Z124.691° SE
12 mins2025-05-11 05:11:33.271Z353.331° N2025-05-11 05:16:33.271Z293.911° NW41.725°2025-05-11 05:23:33.271Z198.437° SSW
10 mins2025-05-11 15:36:33.271Z125.142° SE2025-05-11 15:41:33.271Z71.953° E26.227°2025-05-11 15:46:33.271Z22.376° NNE
12 mins2025-05-11 17:24:33.271Z204.894° SW2025-05-11 17:29:33.271Z269.751° W37.225°2025-05-11 17:36:33.271Z346.584° N
|